Wind_Speed
38 38 40 41 42 43 43 43 44 45 45 45 46 46 46 46 47 47 47 48 48 48 48 48 48 49 49 49 50 50 51 51 51 50 51 52 53 54 53 53 53 53 53
38 38 40 41 42 42 43 43 43 44 45 45 46 46 46 46 47 48 48 48 48 49 49 48 48 49 49 50 50 51 51 51 51 51 52 52 53 53 53 53 53 53 54
37 38 39 40 42 42 43 43 44 44 45 45 46 46 46 47 47 48 48 48 48 49 48 48 48 49 49 50 50 51 51 51 51 51 52 53 53 53 54 54 54 54 54
37 38 39 40 41 42 43 43 44 45 45 45 45 45 45 45 46 47 47 47 48 48 48 48 49 49 48 48 49 50 50 50 50 51 51 52 52 53 53 54 54 55 55
37 37 39 40 41 42 43 44 44 45 45 45 45 45 46 46 46 46 47 47 47 48 48 48 48 48 48 48 48 49 49 50 50 51 51 52 53 53 53 53 54 55 55
38 38 39 40 41 42 43 44 45 45 45 45 45 45 45 45 45 45 46 47 47 47 47 47 47 47 47 48 48 49 50 50 51 52 52 52 52 53 53 53 53 54 53
38 39 40 41 42 43 43 44 45 45 45 45 45 45 45 46 46 46 46 46 46 46 46 47 47 47 48 48 48 49 50 51 52 52 52 52 52 52 52 52 52 52 53
39 40 41 41 42 43 44 44 44 44 44 44 45 45 45 46 46 46 46 46 46 46 46 47 47 47 47 47 47 48 50 51 52 52 53 52 52 52 52 52 51 51 51
40 40 41 41 42 42 43 43 43 43 44 44 45 45 46 46 46 46 45 45 45 46 46 46 47 47 47 48 48 49 49 50 51 52 52 52 52 52 52 52 52 52 51
40 41 42 42 43 43 42 43 43 44 44 44 45 45 45 45 45 45 45 45 44 45 46 46 47 47 47 48 49 49 50 50 51 51 52 52 52 52 52 53 53 52 52
40 41 41 41 41 41 42 42 43 43 44 44 45 44 44 44 44 44 44 44 44 45 46 46 47 47 48 48 49 49 50 50 49 49 50 51 51 52 52 53 53 52 51
39 40 40 40 40 41 42 42 43 43 44 44 44 43 43 43 43 43 44 44 45 45 46 46 46 47 47 48 48 48 49 49 48 48 49 50 50 51 51 52 52 51 50
40 40 40 40 41 41 42 42 43 44 44 44 44 44 44 44 44 44 44 45 46 46 46 46 46 46 46 47 47 47 47 48 48 48 48 49 49 49 49 50 50 49 48
39 39 39 39 40 40 41 42 42 43 43 44 43 43 43 43 43 44 44 45 46 46 46 46 45 45 46 46 47 47 48 48 48 48 47 47 48 48 48 48 48 47 46
38 38 38 38 39 39 39 40 41 41 41 42 42 42 42 42 43 43 44 44 45 45 45 45 45 45 46 46 46 47 47 47 47 47 47 46 46 46 45 45 45 45 45
37 36 37 38 38 38 39 39 39 39 40 40 40 40 40 41 41 42 42 43 43 44 44 45 45 45 46 46 46 46 46 46 46 46 46 45 44 43 43 43 43 43 43
36 37 37 38 38 39 39 39 39 39 39 40 40 40 40 40 41 41 41 42 42 43 44 44 44 45 45 45 45 44 44 44 44 43 43 43 42 42 41 41 40 41 41
37 37 38 38 39 40 39 39 40 40 40 40 40 40 41 41 41 42 42 42 42 43 44 44 43 43 43 43 43 42 42 42 42 42 41 41 40 40 40 39 39 39 40
36 37 37 38 38 39 39 39 39 40 40 40 40 41 41 42 42 42 43 43 43 43 43 43 42 42 41 41 41 40 40 40 40 40 40 39 39 39 39 39 39 39 39
36 37 37 37 38 38 39 39 39 39 39 40 40 41 42 42 43 43 43 43 43 42 42 41 41 41 40 40 40 39 39 39 39 39 39 39 39 39 38 38 38 38 38
36 36 36 37 37 38 38 38 38 38 39 40 40 41 41 41 41 42 42 42 42 41 40 40 40 40 40 39 39 39 38 38 38 38 38 38 38 38 38 38 38 37 37
35 35 36 36 36 37 37 37 37 38 38 39 40 40 40 40 40 40 40 40 40 40 40 40 40 40 39 39 38 38 37 37 37 37 37 36 36 36 35 35 35 35 35
35 35 35 36 36 36 37 37 37 37 38 38 38 38 38 38 38 39 39 39 39 39 39 39 39 38 38 38 37 37 36 36 36 36 35 34 33 33 33 33 33 33 33
34 35 36 36 35 36 36 37 37 37 37 37 37 37 37 38 38 38 38 38 38 38 37 37 37 36 36 35 35 35 34 34 34 33 33 32 32 32 32 32 31 31 31
34 35 35 35 35 35 36 36 36 36 37 37 36 36 36 36 36 37 37 36 36 36 36 35 35 34 34 33 33 32 32 32 32 31 31 30 30 30 30 30 30 30 30
33 34 34 34 35 35 36 36 36 36 36 36 36 36 35 35 35 35 35 34 34 34 34 34 34 33 33 32 31 31 31 31 31 30 30 29 29 29 29 29 28 28 29
Wind_Direction
264 265 265 265 267 269 269 270 272 272 273 274 276 276 277 276 276 276 275 275 274 273 273 272 271 270 269 268 269 269 269 269 268 269 270 270 271 271 271 271 270 269 269
265 267 267 267 268 269 270 271 272 273 274 275 276 277 277 277 277 277 276 275 274 274 274 273 271 270 269 269 270 270 270 270 270 270 271 272 272 271 271 271 271 271 270
267 267 268 269 269 270 271 272 273 275 275 276 277 278 278 279 278 277 276 275 275 275 275 274 272 271 270 271 271 271 271 272 271 271 272 272 272 271 271 271 271 271 270
268 269 270 271 271 271 271 272 274 275 276 277 278 279 279 279 279 277 277 277 276 276 275 274 273 272 272 271 272 272 272 273 273 273 273 272 271 272 271 272 272 271 270
269 271 272 272 272 273 273 273 274 276 277 277 278 279 279 279 279 279 278 278 277 277 276 276 274 274 274 273 273 273 273 273 275 275 274 273 273 273 273 273 273 271 271
270 272 272 273 273 274 274 274 275 276 276 277 278 278 277 278 279 279 278 278 278 277 277 276 275 276 276 275 274 274 274 274 275 275 274 274 275 274 273 273 273 272 272
271 272 273 273 274 274 275 275 276 276 277 277 277 277 277 278 278 279 279 278 277 277 277 276 276 276 276 276 276 275 275 275 276 276 276 276 276 275 274 275 275 274 274
273 274 275 275 275 275 276 276 277 276 277 277 277 277 278 278 278 278 278 278 277 277 277 277 277 277 277 277 276 277 277 277 278 278 277 277 277 276 276 276 276 276 276
274 275 276 276 277 278 278 278 278 277 278 278 277 278 278 278 278 278 278 278 278 278 278 278 277 278 278 277 277 278 279 280 280 279 278 277 277 277 277 277 277 276 276
276 276 277 278 278 278 278 278 278 278 278 278 279 279 279 279 278 278 278 278 278 279 279 279 279 278 278 278 279 279 280 280 281 280 278 277 277 277 277 277 277 277 277
277 277 278 278 278 278 278 278 278 278 278 278 279 279 279 278 277 277 278 278 279 279 280 280 280 279 279 279 280 280 280 280 281 280 279 278 278 277 277 277 277 276 276
279 279 278 278 278 278 278 278 279 279 279 280 279 278 278 277 277 277 277 278 279 280 280 281 280 280 280 280 281 281 281 280 281 281 280 280 279 278 277 277 277 276 275
281 280 279 279 279 279 279 279 279 280 280 280 280 279 278 277 277 277 278 279 280 280 281 281 281 281 281 281 281 281 281 281 282 282 282 281 279 278 277 276 276 275 274
281 281 281 281 281 281 281 282 281 281 281 281 280 279 278 277 278 278 279 280 281 282 282 282 281 281 281 282 282 282 282 282 282 282 282 281 281 279 278 277 275 274 272
281 281 282 282 283 283 282 283 283 283 282 281 281 280 279 279 279 280 280 281 282 282 282 282 282 282 282 282 282 282 282 282 281 282 282 281 280 280 278 277 275 273 272
281 282 283 284 284 284 284 284 284 284 283 282 281 280 280 280 280 281 282 282 282 282 282 282 282 283 282 282 282 282 282 282 282 282 282 281 280 279 278 277 275 273 271
281 282 284 284 284 284 285 286 286 285 284 283 282 281 281 282 282 282 283 283 283 283 283 283 284 284 283 283 283 283 283 283 282 282 282 281 279 278 277 276 274 273 272
282 283 284 285 285 285 286 286 286 286 285 284 283 282 282 283 283 283 283 283 283 284 284 284 284 284 284 284 284 284 283 283 283 282 281 280 279 278 277 275 275 274 274
283 284 285 285 285 286 286 286 286 286 285 284 283 282 282 283 283 283 283 283 283 284 284 284 284 284 284 285 285 285 284 283 283 282 281 281 280 278 276 276 275 275 275
284 285 285 285 286 286 287 287 287 287 286 285 284 283 283 282 282 282 283 283 283 283 283 283 284 284 285 285 285 285 284 283 283 283 282 282 281 278 277 277 277 276 276
285 285 286 287 287 287 288 288 288 288 287 286 285 284 284 283 282 282 282 282 283 283 283 283 284 284 285 285 285 285 285 284 283 283 283 283 281 279 278 278 278 278 277
286 287 287 288 288 289 289 289 289 289 289 288 286 285 284 284 283 282 282 282 282 283 283 283 284 285 285 284 284 284 284 284 284 284 284 282 281 280 278 278 278 278 278
287 288 288 289 289 289 290 290 290 291 291 289 288 286 285 284 284 283 283 282 282 283 283 284 284 284 284 284 284 284 284 284 284 285 284 283 281 281 279 279 279 279 278
288 289 289 289 290 290 291 291 291 291 292 291 290 288 287 285 285 284 283 283 283 283 283 283 284 284 285 284 284 284 284 284 284 284 283 282 282 281 281 280 280 279 279
291 291 290 290 291 292 292 292 292 292 293 292 292 290 289 287 286 285 284 284 284 283 283 283 284 284 284 284 284 284 284 285 285 284 283 283 283 283 281 281 280 280 279
293 293 293 293 293 293 292 292 292 293 293 293 292 291 290 288 287 286 285 284 284 284 283 283 283 283 283 283 283 284 284 285 285 285 284 284 285 284 283 282 281 281 280
Height
5614 5615 5615 5615 5615 5615 5616 5616 5615 5614 5614 5613 5612 5611 5609 5608 5607 5606 5605 5605 5604 5603 5603 5603 5602 5602 5602 5602 5602 5602 5602 5603 5604 5604 5602 5602 5601 5600 5600 5599 5599 5599 5599
5604 5604 5604 5604 5604 5604 5604 5604 5603 5602 5601 5600 5599 5598 5597 5596 5595 5594 5593 5592 5591 5590 5589 5589 5588 5588 5588 5588 5588 5588 5587 5587 5588 5588 5587 5586 5585 5584 5584 5584 5583 5583 5583
5593 5593 5593 5593 5593 5593 5593 5592 5591 5590 5589 5588 5587 5586 5585 5583 5582 5581 5580 5579 5577 5576 5575 5575 5574 5574 5574 5574 5573 5573 5573 5572 5572 5572 5572 5570 5569 5568 5568 5568 5567 5567 5566
5583 5583 5583 5583 5582 5582 5581 5580 5579 5578 5577 5576 5574 5573 5572 5571 5569 5568 5567 5565 5564 5563 5562 5561 5560 5560 5560 5560 5559 5559 5558 5558 5557 5556 5556 5555 5554 5552 5552 5551 5551 5550 5550
5572 5572 5572 5571 5571 5570 5569 5568 5567 5566 5565 5564 5562 5561 5559 5558 5556 5555 5553 5552 5551 5550 5548 5547 5547 5546 5546 5546 5545 5545 5544 5543 5542 5541 5540 5539 5538 5537 5536 5535 5535 5534 5534
5562 5561 5561 5560 5559 5558 5557 5556 5555 5554 5552 5551 5550 5548 5547 5545 5544 5542 5540 5539 5538 5537 5536 5534 5534 5533 5532 5532 5531 5530 5529 5528 5527 5526 5525 5524 5522 5521 5520 5518 5518 5519 5519
5551 5550 5549 5548 5547 5546 5545 5544 5543 5541 5540 5539 5537 5535 5534 5532 5531 5529 5527 5526 5525 5524 5523 5522 5521 5520 5519 5518 5517 5515 5514 5513 5512 5510 5509 5507 5506 5505 5505 5504 5503 5502 5502
5540 5539 5538 5537 5535 5534 5533 5531 5530 5529 5527 5526 5524 5522 5521 5520 5518 5517 5515 5513 5512 5511 5510 5509 5508 5506 5505 5504 5503 5501 5500 5498 5496 5495 5494 5493 5490 5489 5488 5488 5487 5487 5487
5528 5527 5526 5525 5523 5522 5520 5519 5517 5516 5514 5513 5511 5510 5508 5507 5505 5503 5502 5501 5500 5498 5497 5495 5494 5493 5491 5490 5489 5488 5486 5483 5481 5479 5478 5476 5475 5474 5473 5472 5472 5471 5471
5516 5515 5514 5512 5511 5509 5508 5506 5505 5503 5501 5500 5498 5497 5495 5494 5492 5490 5489 5488 5487 5486 5484 5482 5481 5479 5477 5475 5474 5473 5471 5469 5467 5465 5463 5461 5460 5459 5458 5457 5456 5455 5455
5504 5503 5501 5500 5498 5497 5495 5493 5492 5490 5489 5487 5486 5484 5482 5481 5479 5477 5476 5475 5473 5472 5470 5469 5467 5465 5463 5461 5459 5458 5456 5454 5452 5450 5449 5447 5445 5444 5442 5441 5440 5439 5439
5493 5491 5489 5487 5485 5484 5482 5480 5479 5477 5476 5474 5472 5471 5469 5468 5466 5464 5463 5461 5460 5458 5457 5455 5453 5451 5449 5447 5445 5443 5441 5440 5438 5436 5434 5432 5431 5429 5427 5425 5424 5423 5422
5480 5478 5477 5475 5473 5471 5469 5467 5466 5464 5462 5460 5459 5457 5456 5454 5453 5451 5450 5448 5446 5445 5443 5441 5439 5437 5435 5433 5431 5429 5427 5425 5424 5422 5420 5418 5416 5414 5412 5411 5409 5408 5408
5467 5466 5464 5462 5460 5459 5457 5454 5452 5451 5449 5447 5445 5444 5442 5441 5440 5438 5436 5435 5433 5431 5429 5427 5425 5423 5421 5419 5417 5415 5413 5411 5409 5407 5405 5403 5401 5399 5397 5396 5395 5394 5394
5455 5453 5452 5450 5448 5446 5444 5442 5440 5437 5435 5433 5432 5430 5429 5428 5426 5425 5423 5421 5419 5417 5415 5413 5411 5409 5407 5405 5403 5400 5398 5396 5394 5392 5390 5388 5387 5385 5383 5381 5380 5379 5379
5443 5442 5440 5438 5436 5434 5432 5430 5427 5425 5422 5420 5418 5417 5415 5414 5413 5411 5409 5407 5405 5403 5401 5400 5398 5395 5393 5391 5389 5386 5384 5382 5380 5378 5376 5374 5372 5371 5369 5367 5366 5365 5365
5432 5430 5428 5426 5424 5422 5420 5417 5415 5413 5410 5407 5405 5404 5402 5401 5400 5398 5396 5394 5392 5390 5388 5386 5384 5382 5379 5377 5374 5372 5370 5368 5366 5364 5362 5360 5358 5357 5355 5354 5353 5352 5352
5420 5418 5417 5415 5412 5410 5408 5405 5402 5400 5398 5395 5393 5391 5390 5388 5386 5384 5383 5381 5378 5376 5374 5372 5370 5368 5365 5363 5361 5359 5356 5354 5352 5350 5348 5346 5345 5343 5342 5341 5340 5339 5338
5409 5407 5405 5403 5400 5398 5395 5393 5390 5387 5385 5383 5380 5378 5377 5375 5373 5371 5369 5367 5365 5362 5360 5358 5356 5354 5352 5350 5347 5345 5343 5341 5339 5337 5335 5334 5332 5331 5330 5328 5327 5326 5325
5397 5395 5393 5391 5388 5386 5383 5380 5378 5375 5372 5370 5368 5366 5364 5361 5359 5357 5355 5353 5351 5349 5347 5345 5343 5341 5339 5336 5334 5332 5330 5328 5326 5325 5323 5321 5319 5318 5317 5316 5315 5314 5313
5386 5384 5381 5379 5376 5374 5371 5368 5365 5362 5360 5357 5355 5352 5350 5348 5346 5344 5341 5339 5337 5335 5333 5331 5329 5328 5326 5324 5322 5320 5318 5316 5314 5312 5310 5308 5306 5305 5304 5303 5302 5301 5300
5375 5372 5370 5367 5365 5362 5359 5356 5353 5350 5347 5344 5342 5339 5336 5334 5332 5330 5328 5326 5324 5322 5320 5318 5317 5315 5313 5311 5309 5307 5305 5303 5302 5300 5298 5296 5295 5293 5292 5291 5290 5289 5288
5364 5361 5359 5356 5353 5350 5347 5344 5341 5338 5335 5332 5329 5326 5324 5321 5319 5317 5315 5313 5311 5309 5307 5305 5304 5302 5300 5298 5296 5295 5293 5291 5290 5288 5286 5285 5283 5282 5281 5280 5279 5278 5277
5352 5350 5347 5344 5341 5338 5335 5332 5329 5326 5323 5320 5316 5314 5311 5309 5307 5304 5302 5300 5298 5296 5294 5293 5291 5289 5288 5286 5284 5283 5281 5280 5278 5277 5275 5274 5273 5271 5270 5269 5268 5267 5266
5341 5339 5336 5333 5330 5327 5324 5320 5317 5314 5311 5308 5305 5302 5299 5297 5294 5292 5290 5288 5286 5284 5282 5281 5279 5278 5276 5275 5273 5272 5270 5269 5267 5266 5265 5263 5262 5261 5260 5259 5258 5257 5256
5331 5328 5325 5321 5318 5315 5312 5309 5306 5302 5299 5296 5293 5290 5287 5285 5282 5280 5278 5276 5274 5273 5271 5269 5268 5266 5265 5264 5263 5261 5260 5258 5257 5255 5254 5253 5252 5251 5250 5249 5248 5247 5246